Hourly Data Report for June 10, 2021

FISHER BRANCH (AUT)
MANITOBA
Current Station Operator: ECCC - MSC

51°05'00.100" N
97°33'16.200" W
253.00 m
50309J6
71442
WSZ

Download Data

Hourly Data (June 2021)
Hourly Data Report for June 10, 2021
TIME
LST
Temp Definition
°C
Dew Point Definition
°C
Rel Hum Definition
%
Precip. Amount Definition
mm

Wind Dir Definition
10's deg

Wind Spd Definition
km/h
Visibility Definition
km
Stn Press Definition
kPa
Hmdx Definition


Wind Chill Definition


Weather Definition


00:00 15.7 15.0 96 0.0 33 9   98.52     LegendNANA
01:00 15.4 14.8 96 0.0 33 9   98.51     LegendNANA
02:00 15.3 14.7 96 0.0 33 10   98.54     LegendNANA
03:00 15.0 14.3 95 0.0 1 12   98.45     LegendNANA
04:00 14.8 14.0 95 0.0 1 9   98.52     LegendNANA
05:00 14.7 14.0 95 0.0 33 9   98.59     LegendNANA
06:00 14.7 13.9 95 0.0 35 11   98.54     LegendNANA
07:00 14.8 13.8 93 0.0 35 10   98.60     LegendNANA
08:00 15.0 13.9 93 0.0 2 7   98.56     LegendNANA
09:00 15.9 14.0 89 0.0 4 11   98.55     LegendNANA
10:00 16.2 14.2 88 0.0 4 10   98.53     LegendNANA
11:00 17.0 14.5 85 0.0 6 14   98.55     LegendNANA
12:00 17.3 14.7 85 0.0 5 12   98.55     LegendNANA
13:00 17.3 14.8 86 0.0 6 9   98.55     LegendNANA
14:00 18.3 14.8 80 0.0 6 16   98.48     LegendNANA
15:00 19.2 15.3 78 0.0 6 17   98.41     LegendNANA
16:00 18.9 15.1 79 0.0 6 23   98.34     LegendNANA
17:00 18.7 14.9 79 0.0 7 22   98.27     LegendNANA
18:00 18.2 14.5 79 0.0 8 21   98.22     LegendNANA
19:00 18.0 14.5 80 0.0 9 19   98.22     LegendNANA
20:00 17.6 14.1 80 0.0 9 19   98.19     LegendNANA
21:00 17.4 14.0 81 0.0 9 16   98.17     LegendNANA
22:00 17.2 13.4 78 0.0 9 26   98.14     LegendNANA
23:00 16.6 13.0 79 0.0 9 24   98.10     LegendNANA

Notes on Data Quality.

Legend

  • E = Estimated
  • M = Missing
  • NA = Not Available*
  • [empty] = Indicates an unobserved value
Date modified: